{"data":{"norad_id":54822,"epoch":"2026-05-25T03:17:22.498080Z","epoch_age_seconds":59058,"freshness":"FRESH","line1":"1 54822U 22177C   26145.13706595  .00000277  00000+0  19582-4 0  9998","line2":"2 54822  43.0039  64.4416 0000965 261.7733  98.3009 15.27578124188611","mean_motion":15.27578124,"eccentricity":9.65e-5,"inclination_deg":43.0039,"raan_deg":64.4416,"arg_perigee_deg":261.7733,"mean_anomaly_deg":98.3009,"bstar":1.9582e-5,"rev_number":18861,"period_min":94.266864481492,"perigee_km":482.39260846394,"apogee_km":483.71681846464,"semimajor_km":6861.1917134643,"source":"CELESTRAK","updated_at":"2026-05-25T13:38:17.720478Z"}}